Regional Weather Roundup
Issued by NWS Midland/Odessa, TX

Skip options and go directly to product.
Home | Oldest Version | Next Version | Current Version | All | Text Only | Save Text | Print | Product List | Glossary On

Skip product version selection by date and time.   
188
ASUS44 KMAF 231002
RWRMAF
MIDLAND AREA WEATHER ROUNDUP
NATIONAL WEATHER SERVICE MIDLAND TX
500 AM CDT WED APR 23 2014

...IN SOUTHWEST TEXAS AND SOUTHEAST NEW MEXICO...

CITY           SKY/WX    TMP DP  RH WIND       PRES   REMARKS
ALPINE         PTCLDY    66  47  49 S10       29.97F
ANDREWS        FAIR      64  48  56 S10       29.87S
ARTESIA        CLOUDY    66  45  45 SE14      29.81F
BIG SPRING     CLEAR     66  48  51 SE15      29.89F
CARLSBAD       CLOUDY    66  44  45 SE12      29.80F
DRYDEN           N/A     71  52  50 E9        29.85F
FORT STOCKTON  CLEAR     68  51  54 SE18      29.83F
GUAD PASS      MOCLDY    64  42  44 SW13      29.94F
HOBBS          CLOUDY    64  45  48 S13       29.89S
MARFA          PTCLDY    54  43  66 SE6       29.97S
MIDLAND AIRPK  PTCLDY    68  50  52 SE14      29.87F
MIDLAND INTL   PTCLDY    66  50  56 SE16      29.87S
ODESSA           N/A    N/A N/A N/A MISG      29.86F
PECOS          PTCLDY    64  53  68 E9        29.79F
PRESIDIO       FAIR      73  49  41 NE6       29.83S
SEMINOLE       PTCLDY    63  47  55 SE10      29.88F
SNYDER         CLEAR     64  50  58 SE13      29.89F
WINK           PTCLDY    69  50  50 SE13      29.81F
$$
...OTHER STATIONS IN TEXAS...

CITY           SKY/WX    TMP DP  RH WIND       PRES   REMARKS
ABILENE        CLEAR     63  53  70 S12       29.90S
AMARILLO       PTCLDY    62  41  46 S21       29.86S
AUSTIN         CLEAR     56  55  97 W3        29.92S
BROWNSVILLE    PTCLDY    68  67  96 SE6       29.88F
CORPUS CHRISTI PTCLDY    68  66  93 SE6       29.90S
DALLAS FTW     CLEAR     62  56  80 SE5       29.91S
DEL RIO        CLEAR     73  61  65 E12       29.85F
EL PASO        MOCLDY    74  23  15 W13G20    29.83S
HOUSTON INT    MOCLDY    65  64  97 CALM      29.93S
LUBBOCK        MOCLDY    62  46  55 S16       29.88S
SAN ANGELO     CLEAR     68  54  60 S16G24    29.88F
SAN ANTONIO    CLEAR     66  61  84 CALM      29.92F
WACO           CLEAR     55  54  96 CALM      29.92F
WICHITA FALLS  NOT AVBL
$$
...OTHER LOCATIONS IN NEW MEXICO...

CITY           SKY/WX    TMP DP  RH WIND       PRES   REMARKS
ALAMAGORDO     PTCLDY    68  36  30 S10G17    29.83S
ALBUQUERQUE    CLOUDY    60  29  30 SE5       29.85S
CANNON AFB     CLOUDY    61  41  47 S14       29.87F
CLOVIS         MOCLDY    61  41  48 S13       29.90F
HOLLOMAN AFB   PTCLDY    67  38  34 S10       29.81S
ROSWELL        CLOUDY    65  45  48 S16       29.80F
RUIDOSO        CLEAR     50  32  50 S8        29.97F
SANTA FE       CLOUDY    55  31  39 SE5       29.87F
TRUTH OR CONSE FAIR      61  27  27 W5        29.83F
TUCUMCARI      PTCLDY    65  40  39 S25G37    29.79F
$$

USA.gov is the U.S. government's official web portal to all federal, state and local government web resources and services.